Regional Weather Roundup
Issued by NWS Bismarck, ND

Home | Current Version | Previous Version | Text Only | Print | Product List | Glossary On
Versions: 1 2 3 4 5 6 7 8 9 10 11 12 13 14 15 16 17 18 19 20 21 22 23 24 25 26 27 28 29 30 31 32 33 34 35 36 37 38 39 40 41 42 43 44 45 46 47 48 49 50
000
ASUS43 KBIS 272102
RWRBIS

NWR BROADCAST TEXT
NATIONAL WEATHER SERVICE BISMARCK ND
400 PM CDT FRI MAY 27 2016

NOTE: "FAIR" INDICATES FEW OR NO CLOUDS BELOW 12,000 FEET WITH NO
SIGNIFICANT WEATHER AND/OR OBSTRUCTIONS TO VISIBILITY.


CITY           SKY/WX    TMP DP  RH WIND       PRES   REMARKS
WILLISTON      CLOUDY    66  49  54 E7        29.83F
MINOT          MOSUNNY   71  52  50 VRB6      29.80F
MINOT AFB      PTSUNNY   67  54  62 VRB3      29.79F
BISMARCK       CLOUDY    68  48  48 CALM      29.81F
DICKINSON      SUNNY     68  43  40 N9        29.81F
GARRISON         N/A     66  51  58 SW6       29.82S
HETTINGER ARPT CLOUDY    67  46  47 NE6       29.84F
JAMESTOWN      SUNNY     71  49  45 CALM      29.78F
CARRINGTON     FAIR      70  48  46 CALM      29.82F
HAZEN          CLOUDY    66  46  48 CALM      29.84S
MANDAN         MOCLDY    68  48  49 NE6       29.82F
OAKES            N/A    N/A N/A N/A MISG        N/A
STANLEY        CLOUDY    61  57  88 VRB6      29.86F
$$

CITY           SKY/WX    TMP DP  RH WIND       PRES   REMARKS
GRAND FORKS    PTSUNNY   75  55  49 VRB6      29.76F
GRAND FORKS AF MOSUNNY   72  51  47 VRB1      29.78S
DEVILS LAKE    MOSUNNY   68  53  58 W7        29.81F
FARGO          CLOUDY    69  58  67 SE8       29.74R
CAVALIER       FAIR      72  55  56 S5        29.78S
GRAFTON        FAIR      72  54  53 CALM      29.80S
GWINNER        FAIR      73  57  56 N8        29.75F
LANGDON        FAIR      72  55  56 VRB7      29.81S
$$

CITY           SKY/WX    TMP DP  RH WIND       PRES   REMARKS
ABERDEEN       LGT RAIN  64  59  83 S7        29.79S
MOBRIDGE       CLOUDY    72  47  40 NW7       29.77F
BUFFALO          N/A     64  45  49 N5        29.78F
RAPID CITY     CLOUDY    62  48  60 W6        29.84F
GLASGOW        CLOUDY    67  46  47 CALM      29.83F
SIDNEY         PTSUNNY   66  52  60 NE10      29.83F
WOLF POINT     PTSUNNY   70  48  45 VRB7      29.83F
GLENDIVE       SUNNY     66  45  45 E10       29.85F
MILES CITY     SUNNY     68  47  46 NE6       29.83F
BAKER          CLOUDY    67  46  47 VRB3      29.84F
$$

CITY           SKY/WX    TMP DP  RH WIND       PRES   REMARKS
BILLINGS       MOSUNNY   70  40  33 E7G16     29.81F
GREAT FALLS    MOSUNNY   66  37  34 W12       29.82F
$$





USA.gov is the U.S. government's official web portal to all federal, state and local government web resources and services.